Tracking 28335 objects as of 4-Dec-2023
HD Live streaming from Space Station
objects crossing your sky now

BREEZE-M DEB (TANK)

Track BREEZE-M DEB (TANK) now!
10-day predictions


NORAD ID: 28395
Int'l Code: 2004-031C
Perigee: 309.6 km
Apogee: 14,888.6 km
Inclination: 49.4 °
Period: 273.9 minutes
Semi major axis: 13970 km
RCS: 6.5834 m2 (large)
Launch date: August 4, 2004
Source: Commonwealth of Independent States (former USSR) (CIS)
Launch site: TYURATAM MISSILE AND SPACE COMPLEX (TTMTR)

Note: This is SATELLITE DEBRIS
Your satellite tracking list
Your tracking list is empty




NASA's NSSDC Master Catalog

Two Line Element Set (TLE):
1 28395U 04031C   23336.85931355  .00009302  00000-0  16931-2 0  9997
2 28395  49.3869 107.1560 5217930 153.7541 246.4945  5.25779861355312
Source of the keplerian elements: AFSPC